Upstream stations:
Downstream station:
SHEF ID: WANO2 Cimarron River near Waynoka, OK
STATION TYPE:
Regulating: Stage = 9.00, Flow = 4005
PRECIP STAGE RIV-FLOW BAT-LOAD
in ft cfs volt
Ccp-Rev Ccp-Rev Ccp-Rev Ccp-Rev
(US/Central)
01/11 00:00 0.00 5.62 31 12.73
01/11 01:00 0.00 5.62 31 12.65
01/11 02:00 0.00 5.62 31 12.65
01/11 03:00 0.00 5.62 31 12.65
01/11 04:00 0.00 5.62 31 12.65
01/11 05:00 0.00 5.62 31 12.65
01/11 06:00 0.00 5.62 31 12.65
01/11 07:00 0.00 5.62 31 12.57
01/11 08:00 0.00 5.61 29 12.57
01/11 09:00 0.00 5.61 29 12.57
01/11 10:00 0.00 5.61 29 13.13
01/11 11:00 0.00 5.61 29 13.68
01/11 12:00 0.00 5.61 29 13.84
01/11 13:00 0.00 5.59 27 13.68
01/11 14:00 0.00 5.59 27 13.60
01/11 15:00 0.00 5.57 22 13.60
01/11 16:00 0.00 5.61 29 13.60
01/11 17:00 0.00 5.61 29 13.60
01/11 18:00 0.00 5.62 31 13.29
01/11 19:00 0.00 5.61 29 13.05
01/11 20:00 0.00 5.61 29 12.89
01/11 21:00 0.00 5.62 31 12.81
01/11 22:00 0.00 5.61 29 12.81
01/11 23:00 0.00 5.61 29 12.73